HS4AS-1 Weather Reports


Display with metric or nautical units.
time (UTC)temp
F
wind
direction
speed
MPH
gust
MPH
rain 1hr
in
rain 24hr
in
rain mn
in
humidity
%
barometer
mb
20260505101334 90 0 0.0 0.0 0.00 0.00 0.00 99 962.0
20260505100322 91 0 0.0 0.0 0.00 0.00 0.00 99 962.0
20260505095311 91 0 0.0 0.0 0.00 0.00 0.00 99 962.0
20260505094259 91 0 0.0 0.0 0.00 0.00 0.00 99 962.0
20260505093245 92 0 0.0 0.0 0.00 0.00 0.00 99 962.0
20260505092234 92 0 0.0 0.0 0.00 0.00 0.00 99 962.0
20260505091222 92 0 0.0 0.0 0.00 0.00 0.00 99 962.0
20260505090211 92 0 0.0 0.0 0.00 0.00 0.00 99 962.0
20260505085159 92 0 0.0 0.0 0.00 0.00 0.00 99 962.0
20260505084147 93 0 0.0 0.0 0.00 0.00 0.00 99 963.0
20260505083137 93 0 0.0 0.0 0.00 0.00 0.00 99 963.0
20260505082124 93 0 0.0 0.0 0.00 0.00 0.00 99 963.0
20260505081551 94 0 0.0 0.0 0.00 0.00 0.00 99 963.0
20260505080539 94 0 0.0 0.0 0.00 0.00 0.00 99 963.0
20260505075527 94 0 0.0 0.0 0.00 0.00 0.00 99 963.0
20260505074516 94 0 0.0 0.0 0.00 0.00 0.00 99 963.0
20260505073504 94 0 0.0 0.0 0.00 0.00 0.00 99 963.0
20260505072453 94 0 0.0 0.0 0.00 0.00 0.00 93 963.0
20260505071441 95 0 0.0 0.0 0.00 0.00 0.00 91 963.0
20260505070429 95 0 0.0 0.0 0.00 0.00 0.00 90 963.0
20260505065417 95 0 0.0 0.0 0.00 0.00 0.00 90 964.0
20260505064406 94 0 0.0 0.0 0.00 0.00 0.00 94 964.0
20260505063354 94 0 0.0 0.0 0.00 0.00 0.00 89 964.0
20260505062340 94 0 0.0 0.0 0.00 0.00 0.00 87 964.0
20260505061329 95 0 0.0 0.0 0.00 0.00 0.00 93 965.0
20260505060316 95 0 0.0 0.0 0.00 0.00 0.00 97 965.0
20260505055217 95 0 0.0 0.0 0.00 0.00 0.00 96 965.0
20260505053654 95 0 0.0 0.0 0.00 0.00 0.00 99 965.0
20260505052638 95 0 0.0 0.0 0.00 0.00 0.00 94 965.0
20260505051608 96 0 0.0 0.0 0.00 0.00 0.00 96 966.0
20260505040953 94 0 0.0 0.0 0.00 0.00 0.00 99 966.0
20260505035942 93 0 0.0 0.0 0.00 0.00 0.00 99 966.0
20260505034929 92 0 0.0 0.0 0.00 0.00 0.00 99 967.0
20260505033917 91 0 0.0 0.0 0.00 0.00 0.00 99 967.0
20260505032906 90 0 0.0 0.0 0.00 0.00 0.00 99 967.0
20260505031852 89 0 0.0 0.0 0.00 0.00 0.00 99 967.0
20260505030839 88 0 0.0 0.0 0.00 0.00 0.00 99 967.0
20260505025827 88 0 0.0 0.0 0.00 0.00 0.00 99 967.0
20260505024816 87 0 0.0 0.0 0.00 0.00 0.00 99 967.0
20260505023804 87 0 0.0 0.0 0.00 0.00 0.00 99 968.0
20260505022752 86 0 0.0 0.0 0.00 0.00 0.00 99 968.0
20260505021741 86 0 0.0 0.0 0.00 0.00 0.00 99 968.0
20260505020706 85 0 0.0 0.0 0.00 0.00 0.00 99 968.0
20260505015655 85 0 0.0 0.0 0.00 0.00 0.00 99 967.0
20260505014643 85 0 0.0 0.0 0.00 0.00 0.00 99 967.0
20260505013630 84 0 0.0 0.0 0.00 0.00 0.00 99 967.0
20260505012618 84 0 0.0 0.0 0.00 0.00 0.00 99 968.0
20260505011606 83 0 0.0 0.0 0.00 0.00 0.00 99 967.0
20260505010543 84 0 0.0 0.0 0.00 0.00 0.00 99 967.0
20260505004148 83 0 0.0 0.0 0.00 0.00 0.00 99 967.0
20260505003137 82 0 0.0 0.0 0.00 0.00 0.00 99 967.0
20260505002123 82 0 0.0 0.0 0.00 0.00 0.00 99 967.0
20260505001110 81 0 0.0 0.0 0.00 0.00 0.00 99 967.0
20260505000058 81 0 0.0 0.0 0.00 0.00 0.00 99 967.0
20260504235046 81 0 0.0 0.0 0.00 0.00 0.00 99 967.0
20260504234034 81 0 0.0 0.0 0.00 0.00 0.00 99 967.0
20260504233023 80 0 0.0 0.0 0.00 0.00 0.00 99 967.0
20260504232011 80 0 0.0 0.0 0.00 0.00 0.00 99 967.0
20260504230959 80 0 0.0 0.0 0.00 0.00 0.00 99 967.0
20260504225948 80 0 0.0 0.0 0.00 0.00 0.00 99 966.0
20260504224936 79 0 0.0 0.0 0.00 0.00 0.00 99 966.0
20260504223925 79 0 0.0 0.0 0.00 0.00 0.00 99 966.0
20260504222912 78 0 0.0 0.0 0.00 0.00 0.00 99 966.0
20260504221849 77 0 0.0 0.0 0.00 0.00 0.00 99 966.0
20260504140805 86 0 0.0 0.0 0.00 0.00 0.00 99 966.0
20260504130327 88 0 0.0 0.0 0.00 0.00 0.00 99 965.0
20260504120216 88 0 0.0 0.0 0.00 0.00 0.00 99 965.0
20260504110105 90 0 0.0 0.0 0.00 0.00 0.00 99 963.0